El Paso, TX

3:55 AM MDT on July 22, 2017 (GMT -0600)
El Paso International

Weather History for KELP - January, 2012

Change the Weather History Date:

Friday, January 6, 2012

  Actual Average Record
Temperature  
Mean Temperature 48 °F 44 °F  
Max Temperature 67 °F 56 °F 74 °F (1939)
Min Temperature 29 °F 32 °F 11 °F (1971)
Degree Days  
Heating Degree Days 17 21  
Month to date heating degree days 112 126  
Since 1 July heating degree days 1209 1194  
Cooling Degree Days 0 0  
Month to date cooling degree days 0 0  
Year to date cooling degree days 0 0  
Moisture  
Dew Point 19 °F    
Average Humidity 41    
Maximum Humidity 69    
Minimum Humidity 13    
Precipitation  
Precipitation 0.00 in 0.02 in 0.51 in (1973)
Month to date precipitation 0.00 0.09  
Year to date precipitation 0.00 0.09  
Snow  
Snow 0.00 in - - ()
Month to date snowfall 0.0  
Since 1 July snowfall 3.1  
Snow Depth 0.00 in    
Sea Level Pressure  
Sea Level Pressure 29.98 in    
Wind  
Wind Speed 3 mph (North)    
Max Wind Speed 16 mph    
Max Gust Speed 20 mph    
Visibility 10 miles    
Events      
T = Trace of Precipitation, MM = Missing Value Source: NWS Daily Summary

Daily Weather History Graph

Daily Weather History Graph

Search for Another Location

Airport or City:

Trip Planner

Search our weather history database for the weather conditions in past years. The results will help you decide how hot, cold, wet, or windy it might be!

Date:

Astronomy

Jan. 06, 2012 Rise Set
Actual Time 7:06 AM MST 5:16 PM MST
Civil Twilight 6:39 AM MST 5:43 PM MST
Nautical Twilight 6:09 AM MST 6:13 PM MST
Astronomical Twilight 5:39 AM MST 6:42 PM MST
Moon 3:10 PM MST (1/6) 4:47 AM MST (1/6)
Length of Visible Light 11h 03m
Length of Day
10h 09m
Waxing Gibbous, 93% of the Moon is Illuminated
Jan 6
Waxing Gibbous
Jan 9
Full
Jan 16
Last Quarter
Jan 23
New
Jan 30
First Quarter

Hourly Weather History & Observations

Time (MST) Temp. Windchill Dew Point Humidity Pressure Visibility Wind Dir Wind Speed Gust Speed Precip Events Conditions
12:51 AM 44.1 °F 42.5 °F 19.0 °F 37% 29.99 in 10.0 mi WSW 3.5 mph - N/A   Clear
1:51 AM 34.0 °F - 19.9 °F 56% 30.00 in 10.0 mi Calm Calm - N/A   Clear
2:51 AM 32.0 °F - 19.0 °F 59% 30.00 in 10.0 mi Calm Calm - N/A   Clear
3:51 AM 32.0 °F 28.7 °F 19.9 °F 61% 29.99 in 10.0 mi North 3.5 mph - N/A   Clear
4:51 AM 28.9 °F - 19.0 °F 67% 30.00 in 10.0 mi Calm Calm - N/A   Clear
5:51 AM 32.0 °F - 19.0 °F 59% 30.00 in 10.0 mi Calm Calm - N/A   Clear
6:51 AM 30.9 °F - 19.0 °F 61% 30.01 in 10.0 mi Calm Calm - N/A   Clear
7:51 AM 34.0 °F - 19.9 °F 56% 30.01 in 10.0 mi Calm Calm - N/A   Clear
8:51 AM 39.2 °F - 21.2 °F 49% 30.08 in 10.0 mi Calm Calm - N/A   Clear
9:51 AM 46.0 °F - 21.9 °F 39% 30.03 in 10.0 mi Calm Calm - N/A   Partly Cloudy
10:51 AM 55.0 °F - 18.0 °F 23% 29.98 in 10.0 mi South 8.1 mph - N/A   Partly Cloudy
11:51 AM 59.0 °F - 17.1 °F 20% 29.93 in 10.0 mi SSE 10.4 mph - N/A   Clear
12:51 PM 63.0 °F - 12.9 °F 14% 29.91 in 10.0 mi West 10.4 mph 18.4 mph N/A   Clear
1:51 PM 64.0 °F - 17.1 °F 16% 29.93 in 10.0 mi Calm Calm - N/A   Clear
2:51 PM 64.4 °F - 17.6 °F 16% 30.00 in 10.0 mi WNW 9.2 mph - N/A   Clear
3:51 PM 66.9 °F - 14.0 °F 13% 29.91 in 10.0 mi NNW 4.6 mph - N/A   Clear
4:51 PM 64.0 °F - 15.1 °F 15% 29.94 in 10.0 mi North 3.5 mph - N/A   Clear
5:51 PM 57.9 °F - 19.0 °F 22% 29.95 in 10.0 mi NE 3.5 mph - N/A   Clear
6:51 PM 53.1 °F - 19.0 °F 26% 29.98 in 10.0 mi ENE 4.6 mph - N/A   Clear
7:51 PM 50.0 °F - 19.9 °F 31% 29.99 in 10.0 mi NW 3.5 mph - N/A   Clear
8:51 PM 46.0 °F 44.8 °F 21.0 °F 37% 30.00 in 10.0 mi North 3.5 mph - N/A   Clear
9:51 PM 43.0 °F 41.3 °F 21.0 °F 42% 30.00 in 10.0 mi NE 3.5 mph - N/A   Clear
10:51 PM 41.0 °F 37.1 °F 21.9 °F 47% 29.99 in 10.0 mi North 5.8 mph - N/A   Clear
11:51 PM 39.9 °F 37.8 °F 21.9 °F 49% 29.97 in 10.0 mi NNE 3.5 mph - N/A   Clear